Home > Weather > Overland Park > Past weeks

Flag for USA Past Weather in Overland Park, Kansas, USA — Yesterday and Last 2 Weeks

Now
74 °F

Passing clouds.


Feels Like: 74 °F
Forecast: 66 / 77 °F
Wind: 8 mph from East

Location: Johnson County Executive Airport

Current Time: Jun 30, 2016 at 11:27:53 PM

Latest Report: Jun 30, 2016 at 10:53 PM


Visibility: 10 mi

Pressure: 29.97 "Hg

Humidity: 79%

Dew Point: 67 °F

Location of Overland ParkLocation

Past Weather in Overland Park — Graph

°F

Overland Park Temperature Yesterday

Maximum temperature yesterday: 81 °F (at 1:53 PM)
Minimum temperature yesterday: 66 °F (at 3:53 AM)
Average temperature yesterday: 74 °F

High & Low Weather Summary for the Past Weeks

 TemperatureHumidityPressure
High97 °F (Jun 22, 4:53 PM)100% (Jun 27, 12:53 AM)30.20 "Hg (Jun 27, 12:53 AM)
Low66 °F (Jun 29, 3:53 AM)28% (Jun 23, 3:53 PM)29.74 "Hg (Jun 22, 6:53 PM)
Average80 °F67%29.99 "Hg
* Reported Jun 15 9:53 PM — Jun 30 9:53 PM, Overland Park, Weather by CustomWeather, © 2016

Note: Actual official high and low records may vary slightly from our data, if they occured in-between our weather recording intervals... More about our weather records

Advertising

Overland Park Weather History for the Previous 24 Hours

Scroll right to see more
 ConditionsComfort  
Time TempWeatherWind HumidityBarometerVisibility
9:53 PM
Thu, Jun 30
77 °FClear.3 mph74%29.94 "Hg10 mi
8:53 PM78 °FSunny.No wind74%29.91 "Hg10 mi
7:53 PM80 °FSunny.3 mph67%29.90 "Hg10 mi
6:53 PM82 °FSunny.6 mph60%29.90 "Hg10 mi
5:53 PM78 °FSunny.5 mph71%29.89 "Hg10 mi
4:53 PM73 °FSunny.No wind76%29.90 "Hg10 mi
4:01 PM72 °FThunderstorms. Scattered clouds.9 mph78%29.93 "Hg10 mi
3:53 PM70 °FStrong thunderstorms. Mostly cloudy.7 mph84%29.90 "Hg2 mi
2:53 PM86 °FPartly sunny.3 mph57%29.89 "Hg10 mi
1:53 PM84 °FPassing clouds.3 mph59%29.90 "Hg10 mi
12:53 PM83 °FSunny.6 mph68%29.91 "Hg10 mi
11:53 AM80 °FSunny.6 mph69%29.91 "Hg10 mi
10:53 AM80 °FSunny.6 mph67%29.93 "Hg10 mi
9:53 AM77 °FSunny.8 mph74%29.92 "Hg10 mi
8:53 AM75 °FSunny.7 mph76%29.92 "Hg10 mi
7:53 AM71 °FSunny.6 mph87%29.93 "Hg10 mi
6:55 AM70 °FThundershowers. Passing clouds.7 mph87%29.94 "Hg10 mi
5:53 AM70 °FThundershowers. Partly cloudy.10 mph84%29.90 "Hg10 mi
5:01 AM69 °FThundershowers. Passing clouds.8 mph87%29.95 "Hg10 mi
4:53 AM69 °FPassing clouds.6 mph87%29.92 "Hg10 mi
3:53 AM69 °FClear.6 mph90%29.94 "Hg10 mi
2:53 AM70 °FClear.8 mph87%29.94 "Hg10 mi
2:00 AM71 °FThundershowers. Clear.6 mph84%29.99 "Hg10 mi
12:53 AM72 °FPassing clouds.6 mph81%29.97 "Hg10 mi
11:53 PM
Wed, Jun 29
73 °FClear.7 mph79%29.97 "Hg10 mi
Weather by CustomWeather, © 2016

See weather overviewHow to use our weather pages